ITY2018 NSFA-NFTF

Flight info

Callsign ITY2018
Flight time 1h 21m
Altitude 34000
Route 1730S17330W
Aircraft B738/M-SDE2E3FGHIRWXY/LB1

Departure

Time 2026-04-24 13:18
Airport Faleolo International Airport (NSFA)

Arrival

Time 2026-04-24 14:40
Airport Fua'amotu International Airport (NFTF)
Time Latitude Longitude Altitude Speed Heading
2026-04-24 12:43 -13.83217 -171.99611 7 ft 0 kts 223°
2026-04-24 13:09 -13.83217 -171.99612 7 ft 0 kts 223°
2026-04-24 13:10 -13.83219 -171.99613 7 ft 0 kts 214°
2026-04-24 13:10 -13.83199 -171.99598 7 ft 3 kts 214°
2026-04-24 13:10 -13.83198 -171.99603 9 ft 1 kts 270°
2026-04-24 13:11 -13.83188 -171.99619 6 ft 5 kts 308°
2026-04-24 13:11 -13.83156 -171.99631 7 ft 5 kts 342°
2026-04-24 13:11 -13.83128 -171.99653 7 ft 5 kts 301°
2026-04-24 13:11 -13.83121 -171.99695 7 ft 7 kts 275°
2026-04-24 13:12 -13.83094 -171.99737 9 ft 0 kts 337°
2026-04-24 13:12 -13.83082 -171.99740 8 ft 4 kts 346°
2026-04-24 13:12 -13.83050 -171.99743 9 ft 5 kts 359°
2026-04-24 13:12 -13.83013 -171.99751 10 ft 7 kts 332°
2026-04-24 13:13 -13.82992 -171.99809 9 ft 12 kts 276°
2026-04-24 13:13 -13.82992 -171.99911 9 ft 16 kts 268°
2026-04-24 13:13 -13.82994 -172.00041 11 ft 20 kts 269°
2026-04-24 13:13 -13.82995 -172.00200 10 ft 25 kts 269°
2026-04-24 13:14 -13.83000 -172.00389 10 ft 28 kts 268°
2026-04-24 13:14 -13.83001 -172.00587 14 ft 27 kts 269°
2026-04-24 13:14 -13.83002 -172.00773 11 ft 25 kts 269°
2026-04-24 13:14 -13.83005 -172.00947 12 ft 23 kts 269°
2026-04-24 13:15 -13.83006 -172.01111 17 ft 23 kts 269°
2026-04-24 13:15 -13.83008 -172.01272 22 ft 23 kts 269°
2026-04-24 13:15 -13.83010 -172.01439 30 ft 23 kts 269°
2026-04-24 13:15 -13.83013 -172.01600 36 ft 22 kts 269°
2026-04-24 13:16 -13.83014 -172.01756 40 ft 22 kts 269°
2026-04-24 13:16 -13.83016 -172.01911 44 ft 21 kts 269°
2026-04-24 13:16 -13.83019 -172.02061 48 ft 21 kts 268°
2026-04-24 13:16 -13.83055 -172.02194 59 ft 15 kts 272°
2026-04-24 13:17 -13.83019 -172.02203 50 ft 6 kts 49°
2026-04-24 13:17 -13.83019 -172.02162 49 ft 0 kts 89°
2026-04-24 13:17 -13.83018 -172.02136 47 ft 22 kts 88°
2026-04-24 13:18 -13.83013 -172.01717 39 ft 94 kts 89°
2026-04-24 13:18 -13.83000 -172.00816 14 ft 155 kts 88°
2026-04-24 13:18 -13.82975 -171.99624 454 ft 167 kts 90°
2026-04-24 13:18 -13.82837 -171.98547 1350 ft 149 kts 70°
2026-04-24 13:19 -13.82152 -171.97720 1443 ft 164 kts 27°
2026-04-24 13:19 -13.81035 -171.97358 1591 ft 179 kts
2026-04-24 13:19 -13.79717 -171.97634 1855 ft 213 kts 333°
2026-04-24 13:19 -13.78679 -171.98786 2254 ft 230 kts 293°
2026-04-24 13:20 -13.78583 -172.00411 2765 ft 234 kts 250°
2026-04-24 13:20 -13.79530 -172.01724 3340 ft 230 kts 210°
2026-04-24 13:20 -13.80883 -172.02618 4022 ft 233 kts 213°
2026-04-24 13:20 -13.82205 -172.03593 4778 ft 234 kts 213°
2026-04-24 13:21 -13.83547 -172.04531 5437 ft 238 kts 212°
2026-04-24 13:21 -13.84946 -172.05498 6119 ft 241 kts 212°
2026-04-24 13:21 -13.86299 -172.06502 6743 ft 246 kts 224°
2026-04-24 13:21 -13.87264 -172.08025 7099 ft 267 kts 243°
2026-04-24 13:22 -13.88112 -172.09830 7334 ft 289 kts 244°
2026-04-24 13:22 -13.88985 -172.11728 7894 ft 297 kts 244°
2026-04-24 13:22 -13.89879 -172.13667 8554 ft 300 kts 244°
2026-04-24 13:22 -13.90786 -172.15619 9272 ft 303 kts 243°
2026-04-24 13:23 -13.91696 -172.17563 9928 ft 307 kts 243°
2026-04-24 13:23 -13.92640 -172.19573 10376 ft 320 kts 243°
2026-04-24 13:23 -13.93647 -172.21708 10511 ft 342 kts 243°
2026-04-24 13:23 -13.94718 -172.23975 10664 ft 361 kts 243°
2026-04-24 13:24 -13.95844 -172.26358 10794 ft 379 kts 243°
2026-04-24 13:24 -13.97014 -172.28835 11111 ft 388 kts 243°
2026-04-24 13:24 -13.98204 -172.31353 11598 ft 392 kts 243°
2026-04-24 13:24 -13.99401 -172.33889 12158 ft 394 kts 243°
2026-04-24 13:25 -14.00605 -172.36439 12702 ft 397 kts 243°
2026-04-24 13:25 -14.01819 -172.39010 13218 ft 401 kts 243°
2026-04-24 13:25 -14.03030 -172.41574 13685 ft 406 kts 243°
2026-04-24 13:25 -14.04485 -172.44084 14089 ft 409 kts 227°
2026-04-24 13:26 -14.06671 -172.45908 14694 ft 405 kts 207°
2026-04-24 13:26 -14.09287 -172.46974 15123 ft 406 kts 194°
2026-04-24 13:26 -14.12013 -172.47774 15587 ft 409 kts 194°
2026-04-24 13:26 -14.14766 -172.48561 16045 ft 412 kts 193°
2026-04-24 13:27 -14.17545 -172.49353 16530 ft 414 kts 193°
2026-04-24 13:27 -14.20332 -172.50155 17012 ft 417 kts 193°
2026-04-24 13:27 -14.23135 -172.50972 17428 ft 420 kts 193°
2026-04-24 13:27 -14.25959 -172.51804 17898 ft 422 kts 194°
2026-04-24 13:28 -14.28792 -172.52644 18299 ft 425 kts 194°
2026-04-24 13:28 -14.31649 -172.53493 18656 ft 428 kts 194°
2026-04-24 13:28 -14.34487 -172.54338 18989 ft 431 kts 194°
2026-04-24 13:28 -14.37382 -172.55201 19345 ft 434 kts 194°
2026-04-24 13:29 -14.40293 -172.56070 19725 ft 435 kts 194°
2026-04-24 13:29 -14.43213 -172.56943 20085 ft 437 kts 194°
2026-04-24 13:29 -14.46151 -172.57822 20395 ft 441 kts 194°
2026-04-24 13:29 -14.49112 -172.58708 20721 ft 443 kts 194°
2026-04-24 13:30 -14.52083 -172.59595 21122 ft 444 kts 194°
2026-04-24 13:30 -14.55060 -172.60485 21433 ft 447 kts 194°
2026-04-24 13:30 -14.58023 -172.61371 21711 ft 451 kts 194°
2026-04-24 13:30 -14.61048 -172.62276 22014 ft 453 kts 194°
2026-04-24 13:31 -14.64086 -172.63185 22319 ft 455 kts 194°
2026-04-24 13:31 -14.67130 -172.64094 22714 ft 456 kts 194°
2026-04-24 13:31 -14.70185 -172.65009 22953 ft 460 kts 194°
2026-04-24 13:31 -14.73276 -172.65935 23258 ft 461 kts 194°
2026-04-24 13:32 -14.76371 -172.66862 23496 ft 465 kts 194°
2026-04-24 13:32 -14.79450 -172.67784 23745 ft 466 kts 194°
2026-04-24 13:32 -14.82563 -172.68717 24082 ft 465 kts 194°
2026-04-24 13:32 -14.85672 -172.69652 24419 ft 465 kts 194°
2026-04-24 13:33 -14.88776 -172.70581 24739 ft 464 kts 194°
2026-04-24 13:33 -14.91898 -172.71516 24900 ft 468 kts 195°
2026-04-24 13:33 -14.95058 -172.72464 25029 ft 473 kts 195°
2026-04-24 13:33 -14.98190 -172.73405 25180 ft 476 kts 194°
2026-04-24 13:34 -15.01376 -172.74363 25418 ft 477 kts 194°
2026-04-24 13:34 -15.04562 -172.75319 25715 ft 476 kts 195°
2026-04-24 13:34 -15.07748 -172.76276 25941 ft 478 kts 194°
2026-04-24 13:34 -15.10961 -172.77243 26037 ft 482 kts 194°
2026-04-24 13:35 -15.14199 -172.78216 26241 ft 484 kts 194°
2026-04-24 13:35 -15.17432 -172.79189 26508 ft 484 kts 194°
2026-04-24 13:35 -15.20668 -172.80161 26761 ft 484 kts 194°
2026-04-24 13:35 -15.23890 -172.81135 27117 ft 482 kts 194°
2026-04-24 13:36 -15.27076 -172.82096 27290 ft 484 kts 195°
2026-04-24 13:36 -15.30310 -172.83067 27513 ft 485 kts 194°
2026-04-24 13:36 -15.33567 -172.84045 27644 ft 488 kts 195°
2026-04-24 13:36 -15.36851 -172.85034 27745 ft 491 kts 195°
2026-04-24 13:37 -15.40144 -172.86030 27889 ft 494 kts 195°
2026-04-24 13:37 -15.43451 -172.87027 28105 ft 494 kts 195°
2026-04-24 13:37 -15.46750 -172.88017 28427 ft 492 kts 194°
2026-04-24 13:37 -15.50003 -172.88999 28584 ft 494 kts 194°
2026-04-24 13:38 -15.56659 -172.91010 28731 ft 501 kts 195°
2026-04-24 13:38 -15.58876 -172.91679 28902 ft 499 kts 195°
2026-04-24 13:38 -15.62204 -172.92683 29353 ft 494 kts 195°
2026-04-24 13:39 -15.65494 -172.93676 29784 ft 490 kts 195°
2026-04-24 13:39 -15.68784 -172.94674 30013 ft 491 kts 195°
2026-04-24 13:39 -15.72064 -172.95661 30306 ft 489 kts 195°
2026-04-24 13:39 -15.75327 -172.96648 30574 ft 488 kts 195°
2026-04-24 13:40 -15.78586 -172.97637 30777 ft 489 kts 195°
2026-04-24 13:40 -15.81848 -172.98624 31067 ft 486 kts 195°
2026-04-24 13:40 -15.85048 -172.99600 31335 ft 486 kts 195°
2026-04-24 13:40 -15.88292 -173.00581 31642 ft 483 kts 195°
2026-04-24 13:41 -15.91520 -173.01554 32023 ft 480 kts 195°
2026-04-24 13:41 -15.94723 -173.02529 32272 ft 480 kts 195°
2026-04-24 13:41 -15.97931 -173.03502 32562 ft 479 kts 195°
2026-04-24 13:41 -16.01127 -173.04471 32901 ft 476 kts 195°
2026-04-24 13:42 -16.04257 -173.05421 33262 ft 473 kts 195°
2026-04-24 13:42 -16.07408 -173.06376 33622 ft 471 kts 195°
2026-04-24 13:42 -16.10556 -173.07332 33907 ft 470 kts 195°
2026-04-24 13:42 -16.13707 -173.08290 33930 ft 472 kts 195°
2026-04-24 13:43 -16.20028 -173.10212 33943 ft 470 kts 195°
2026-04-24 13:43 -16.26260 -173.12105 33948 ft 468 kts 196°
2026-04-24 13:44 -16.32519 -173.14010 33950 ft 467 kts 196°
2026-04-24 13:44 -16.38759 -173.15909 33941 ft 466 kts 196°
2026-04-24 13:45 -16.44939 -173.17790 33944 ft 465 kts 196°
2026-04-24 13:45 -16.51174 -173.19693 33949 ft 466 kts 196°
2026-04-24 13:46 -16.57408 -173.21595 33947 ft 467 kts 196°
2026-04-24 13:46 -16.63611 -173.23489 33945 ft 468 kts 197°
2026-04-24 13:47 -16.69873 -173.25401 33954 ft 468 kts 197°
2026-04-24 13:47 -16.76129 -173.27314 33928 ft 467 kts 197°
2026-04-24 13:48 -16.82341 -173.29217 33956 ft 468 kts 197°
2026-04-24 13:48 -16.88601 -173.31132 33955 ft 468 kts 197°
2026-04-24 13:49 -16.94865 -173.33046 33962 ft 468 kts 198°
2026-04-24 13:49 -17.01061 -173.34946 33944 ft 464 kts 198°
2026-04-24 13:50 -17.07267 -173.36857 33962 ft 465 kts 198°
2026-04-24 13:50 -17.13497 -173.38760 33957 ft 466 kts 198°
2026-04-24 13:51 -17.19666 -173.40656 33954 ft 463 kts 198°
2026-04-24 13:51 -17.25848 -173.42558 33951 ft 461 kts 198°
2026-04-24 13:52 -17.32032 -173.44468 33963 ft 465 kts 198°
2026-04-24 13:52 -17.38283 -173.46390 33966 ft 470 kts 198°
2026-04-24 13:53 -17.44545 -173.48318 33959 ft 472 kts 198°
2026-04-24 13:53 -17.50889 -173.50192 33942 ft 473 kts 192°
2026-04-24 13:54 -17.57435 -173.51095 33949 ft 474 kts 187°
2026-04-24 13:54 -17.63991 -173.51823 33967 ft 473 kts 188°
2026-04-24 13:55 -17.70492 -173.52568 33959 ft 472 kts 188°
2026-04-24 13:55 -17.77008 -173.53360 33957 ft 471 kts 188°
2026-04-24 13:56 -17.83520 -173.54173 33960 ft 470 kts 188°
2026-04-24 13:56 -17.90024 -173.54989 33960 ft 470 kts 188°
2026-04-24 13:57 -17.96479 -173.55798 33965 ft 469 kts 188°
2026-04-24 13:57 -18.02977 -173.56612 33964 ft 469 kts 188°
2026-04-24 13:58 -18.09471 -173.57425 33970 ft 469 kts 188°
2026-04-24 13:58 -18.15965 -173.58239 33972 ft 470 kts 188°
2026-04-24 13:59 -18.22429 -173.59050 33974 ft 470 kts 188°
2026-04-24 13:59 -18.28924 -173.59865 33971 ft 470 kts 188°
2026-04-24 14:00 -18.35428 -173.60682 33975 ft 471 kts 189°
2026-04-24 14:00 -18.41935 -173.61500 33983 ft 471 kts 189°
2026-04-24 14:01 -18.48449 -173.62320 33988 ft 471 kts 189°
2026-04-24 14:01 -18.54935 -173.63137 33990 ft 472 kts 189°
2026-04-24 14:02 -18.61459 -173.63959 33992 ft 472 kts 189°
2026-04-24 14:02 -18.67995 -173.64783 33999 ft 472 kts 189°
2026-04-24 14:03 -18.74492 -173.65603 33989 ft 472 kts 189°
2026-04-24 14:03 -18.81029 -173.66429 33982 ft 472 kts 189°
2026-04-24 14:04 -18.87558 -173.67254 33982 ft 472 kts 189°
2026-04-24 14:04 -18.94100 -173.68081 33987 ft 472 kts 189°
2026-04-24 14:05 -19.00630 -173.68908 33984 ft 472 kts 189°
2026-04-24 14:05 -19.07156 -173.69735 33976 ft 472 kts 189°
2026-04-24 14:06 -19.13643 -173.70557 33974 ft 472 kts 189°
2026-04-24 14:06 -19.20164 -173.71385 33979 ft 471 kts 189°
2026-04-24 14:07 -19.26673 -173.72212 33975 ft 471 kts 189°
2026-04-24 14:07 -19.33187 -173.73040 33980 ft 470 kts 189°
2026-04-24 14:08 -19.39645 -173.73861 33976 ft 470 kts 189°
2026-04-24 14:08 -19.46149 -173.74689 33980 ft 470 kts 189°
2026-04-24 14:09 -19.52659 -173.75519 33980 ft 470 kts 189°
2026-04-24 14:09 -19.59161 -173.76348 33981 ft 471 kts 189°
2026-04-24 14:10 -19.65669 -173.77178 33982 ft 471 kts 189°
2026-04-24 14:10 -19.72138 -173.78005 33987 ft 471 kts 189°
2026-04-24 14:11 -19.78669 -173.78840 33986 ft 472 kts 189°
2026-04-24 14:12 -19.88457 -173.80092 33991 ft 472 kts 189°
2026-04-24 14:12 -19.94987 -173.80928 33990 ft 473 kts 189°
2026-04-24 14:13 -20.01475 -173.81760 33983 ft 473 kts 189°
2026-04-24 14:13 -20.08001 -173.82598 33991 ft 473 kts 190°
2026-04-24 14:14 -20.14545 -173.83438 33988 ft 473 kts 190°
2026-04-24 14:14 -20.24391 -173.84704 33428 ft 473 kts 190°
2026-04-24 14:15 -20.27669 -173.85125 33176 ft 474 kts 190°
2026-04-24 14:15 -20.30907 -173.85542 32935 ft 475 kts 190°
2026-04-24 14:15 -20.34205 -173.85967 32689 ft 477 kts 190°
2026-04-24 14:15 -20.37502 -173.86392 32459 ft 478 kts 190°
2026-04-24 14:16 -20.40811 -173.86819 32216 ft 479 kts 190°
2026-04-24 14:16 -20.44120 -173.87245 31974 ft 479 kts 190°
2026-04-24 14:16 -20.47433 -173.87673 31737 ft 480 kts 190°
2026-04-24 14:17 -20.54068 -173.88529 31086 ft 479 kts 190°
2026-04-24 14:17 -20.57388 -173.88958 30271 ft 481 kts 190°
2026-04-24 14:17 -20.64046 -173.89818 28405 ft 482 kts 189°
2026-04-24 14:18 -20.67371 -173.90260 27549 ft 479 kts 192°
2026-04-24 14:18 -20.70474 -173.91257 26909 ft 466 kts 210°
2026-04-24 14:18 -20.73098 -173.93185 26328 ft 453 kts 226°
2026-04-24 14:18 -20.75155 -173.95688 25728 ft 444 kts 237°
2026-04-24 14:19 -20.76218 -173.97536 25308 ft 439 kts 245°
2026-04-24 14:19 -20.77522 -174.01631 24475 ft 431 kts 257°
2026-04-24 14:19 -20.78229 -174.04741 23832 ft 430 kts 258°
2026-04-24 14:19 -20.78896 -174.07806 23128 ft 428 kts 258°
2026-04-24 14:20 -20.79571 -174.10908 22454 ft 425 kts 258°
2026-04-24 14:20 -20.80250 -174.13978 21813 ft 421 kts 257°
2026-04-24 14:20 -20.80933 -174.17014 21187 ft 418 kts 257°
2026-04-24 14:20 -20.81619 -174.20029 20578 ft 415 kts 257°
2026-04-24 14:21 -20.82294 -174.22977 19957 ft 413 kts 257°
2026-04-24 14:21 -20.82981 -174.25965 19322 ft 412 kts 257°
2026-04-24 14:21 -20.83663 -174.28933 18728 ft 410 kts 257°
2026-04-24 14:21 -20.84345 -174.31899 18081 ft 409 kts 257°
2026-04-24 14:22 -20.85022 -174.34846 17400 ft 408 kts 257°
2026-04-24 14:22 -20.85696 -174.37785 16766 ft 405 kts 257°
2026-04-24 14:22 -20.87022 -174.43576 15463 ft 400 kts 257°
2026-04-24 14:23 -20.87672 -174.46417 14819 ft 387 kts 257°
2026-04-24 14:23 -20.88305 -174.49186 14137 ft 379 kts 257°
2026-04-24 14:23 -20.88930 -174.51924 13171 ft 379 kts 256°
2026-04-24 14:23 -20.89549 -174.54639 12435 ft 370 kts 256°
2026-04-24 14:24 -20.90153 -174.57293 11594 ft 365 kts 256°
2026-04-24 14:24 -20.90746 -174.59898 11040 ft 353 kts 256°
2026-04-24 14:24 -20.91311 -174.62378 10753 ft 335 kts 256°
2026-04-24 14:24 -20.91838 -174.64697 10573 ft 317 kts 256°
2026-04-24 14:25 -20.92187 -174.66235 10481 ft 310 kts 255°
2026-04-24 14:25 -20.92848 -174.69142 10302 ft 298 kts 256°
2026-04-24 14:25 -20.93331 -174.71268 10185 ft 289 kts 256°
2026-04-24 14:25 -20.93798 -174.73329 10060 ft 281 kts 256°
2026-04-24 14:26 -20.94254 -174.75337 9839 ft 277 kts 256°
2026-04-24 14:26 -20.94706 -174.77334 9549 ft 275 kts 255°
2026-04-24 14:26 -20.95155 -174.79315 9266 ft 273 kts 255°
2026-04-24 14:26 -20.95602 -174.81287 8975 ft 272 kts 256°
2026-04-24 14:27 -20.96044 -174.83240 8799 ft 266 kts 255°
2026-04-24 14:27 -20.96469 -174.85119 8674 ft 259 kts 255°
2026-04-24 14:27 -20.96887 -174.86972 8548 ft 252 kts 255°
2026-04-24 14:27 -20.97293 -174.88769 8431 ft 245 kts 256°
2026-04-24 14:28 -20.97688 -174.90519 8330 ft 239 kts 255°
2026-04-24 14:28 -20.98080 -174.92253 8242 ft 240 kts 255°
2026-04-24 14:28 -20.98478 -174.94013 8046 ft 245 kts 255°
2026-04-24 14:28 -20.98879 -174.95791 7841 ft 245 kts 255°
2026-04-24 14:29 -20.99143 -174.96964 7707 ft 244 kts 256°
2026-04-24 14:29 -20.99539 -174.98722 7488 ft 242 kts 255°
2026-04-24 14:29 -21.00062 -175.01046 7214 ft 242 kts 256°
2026-04-24 14:29 -21.00454 -175.02792 7032 ft 238 kts 255°
2026-04-24 14:30 -21.00714 -175.03945 6879 ft 234 kts 255°
2026-04-24 14:30 -21.01091 -175.05626 6657 ft 229 kts 254°
2026-04-24 14:30 -21.01460 -175.07268 6454 ft 226 kts 254°
2026-04-24 14:30 -21.01822 -175.08876 6250 ft 224 kts 254°
2026-04-24 14:31 -21.02185 -175.10486 6068 ft 221 kts 255°
2026-04-24 14:31 -21.02541 -175.12080 5864 ft 217 kts 255°
2026-04-24 14:31 -21.02893 -175.13648 5707 ft 216 kts 254°
2026-04-24 14:31 -21.03244 -175.15213 5496 ft 216 kts 255°
2026-04-24 14:32 -21.03590 -175.16757 5317 ft 209 kts 255°
2026-04-24 14:32 -21.03924 -175.18248 5116 ft 203 kts 255°
2026-04-24 14:32 -21.04248 -175.19695 4911 ft 198 kts 255°
2026-04-24 14:32 -21.04569 -175.21126 4766 ft 196 kts 255°
2026-04-24 14:33 -21.04886 -175.22544 4583 ft 196 kts 255°
2026-04-24 14:33 -21.05199 -175.23940 4431 ft 195 kts 255°
2026-04-24 14:33 -21.05515 -175.25356 4237 ft 196 kts 255°
2026-04-24 14:33 -21.05832 -175.26770 4081 ft 195 kts 255°
2026-04-24 14:34 -21.06156 -175.28191 3927 ft 195 kts 251°
2026-04-24 14:34 -21.06902 -175.29337 3727 ft 185 kts 207°
2026-04-24 14:34 -21.08089 -175.29788 3634 ft 182 kts 189°
2026-04-24 14:34 -21.09342 -175.30072 3470 ft 186 kts 187°
2026-04-24 14:35 -21.10613 -175.30349 3297 ft 185 kts 188°
2026-04-24 14:35 -21.11865 -175.30626 3114 ft 182 kts 187°
2026-04-24 14:35 -21.13085 -175.30897 2951 ft 180 kts 187°
2026-04-24 14:35 -21.14308 -175.30906 2764 ft 174 kts 153°
2026-04-24 14:36 -21.15130 -175.30059 2684 ft 167 kts 123°
2026-04-24 14:36 -21.15834 -175.29009 2576 ft 174 kts 123°
2026-04-24 14:36 -21.16494 -175.27963 2401 ft 168 kts 121°
2026-04-24 14:36 -21.17104 -175.26948 2230 ft 157 kts 121°
2026-04-24 14:37 -21.17693 -175.25948 2086 ft 158 kts 120°
2026-04-24 14:37 -21.18269 -175.24965 1945 ft 154 kts 119°
2026-04-24 14:37 -21.18819 -175.24024 1847 ft 142 kts 120°
2026-04-24 14:37 -21.19349 -175.23115 1657 ft 141 kts 121°
2026-04-24 14:38 -21.19859 -175.22240 1455 ft 135 kts 121°
2026-04-24 14:38 -21.20345 -175.21407 1314 ft 134 kts 120°
2026-04-24 14:38 -21.20843 -175.20550 1125 ft 135 kts 122°
2026-04-24 14:38 -21.21334 -175.19711 952 ft 130 kts 120°
2026-04-24 14:39 -21.21818 -175.18886 794 ft 132 kts 117°
2026-04-24 14:39 -21.22274 -175.17995 559 ft 143 kts 120°
2026-04-24 14:39 -21.22799 -175.17138 366 ft 138 kts 120°
2026-04-24 14:39 -21.23318 -175.16277 234 ft 135 kts 119°
2026-04-24 14:40 -21.23784 -175.15475 111 ft 116 kts 130°
2026-04-24 14:40 -21.24168 -175.14845 102 ft 70 kts 123°
2026-04-24 14:40 -21.24357 -175.14526 103 ft 40 kts 122°
2026-04-24 14:40 -21.24432 -175.14394 101 ft 14 kts 121°
2026-04-24 14:41 -21.24420 -175.14335 100 ft 11 kts 42°
2026-04-24 14:41 -21.24368 -175.14297 96 ft 10 kts 31°
2026-04-24 14:41 -21.24293 -175.14248 94 ft 13 kts 34°
2026-04-24 14:41 -21.24278 -175.14236 93 ft 3 kts 37°
2026-04-24 14:42 -21.24257 -175.14213 93 ft 5 kts 50°
2026-04-24 14:42 -21.24246 -175.14186 91 ft 3 kts 78°
2026-04-24 14:42 -21.24241 -175.14150 92 ft 0 kts 77°